Location: Borea
(45.6167°N, 23.0167°E)
Time: 10:57:32
(UTC+00:00)

CZ-4C R/B - Pass Details

Date: 03 February 2023
Orbit: 456 x 613 km, 98.1° (Epoch: 20 March)

Event Time Altitude Azimuth Distance (km) Brightness Sun altitude
Rises 16:34:59 0° 16° (NNE) 2,706 6.6 -10.5°
Reaches altitude 10° 16:37:11 10° 19° (NNE) 1,781 5.6 -10.9°
Maximum altitude 16:40:59 64° 101° (ESE) 566 3.1 -11.5°
Drops below altitude 10° 16:44:34 10° 184° (S) 1,678 6.0 -12.2°
Sets 16:46:35 0° 188° (S) 2,532 7.0 -12.5°
